{"data":{"norad_id":61892,"epoch":"2026-09-21T08:22:13.569888Z","epoch_age_seconds":115100,"freshness":"FRESH","line1":"1 61892U 24204U   26264.34876817 -.00000309  00000+0  19796-5 0  9991","line2":"2 61892  53.1606 295.4455 0001376  89.6638 270.4522 15.34390945105090","mean_motion":15.34390945,"eccentricity":0.0001376,"inclination_deg":53.1606,"raan_deg":295.4455,"arg_perigee_deg":89.6638,"mean_anomaly_deg":270.4522,"bstar":1.9796e-6,"rev_number":10509,"period_min":93.848311911147,"perigee_km":461.78885038737,"apogee_km":463.67145702807,"semimajor_km":6840.8671537077,"source":"CELESTRAK","updated_at":"2026-09-22T09:00:49.448236Z"}}